Hamilton Island, Australia

8:17 PM AEST on May 28, 2017 (GMT +1000)
Hamilton Island

Weather History for YBHM - October, 2012

Change the Weather History Date:

Sunday, October 14, 2012

  Actual Average Record
Temperature  
Mean Temperature 72 °F -  
Max Temperature 77 °F - - ()
Min Temperature 67 °F - - ()
Cooling Degree Days 7    
Growing Degree Days 22 (Base 50)    
Moisture  
Dew Point 44 °F    
Average Humidity 36    
Maximum Humidity 52    
Minimum Humidity 15    
Precipitation  
Precipitation 0.00 in - - ()
Sea Level Pressure  
Sea Level Pressure 30.12 in    
Wind  
Wind Speed 17 mph ()    
Max Wind Speed 26 mph    
Max Gust Speed -    
T = Trace of Precipitation, MM = Missing Value Source: Averaged Metar Reports

Daily Weather History Graph

Daily Weather History Graph

Search for Another Location

Airport or City:

Trip Planner

Search our weather history database for the weather conditions in past years. The results will help you decide how hot, cold, wet, or windy it might be!

Date:

Astronomy

Oct. 14, 2012 Rise Set
Actual Time 5:34 AM AEST 6:06 PM AEST
Civil Twilight 5:12 AM AEST 6:28 PM AEST
Nautical Twilight 4:45 AM AEST 6:54 PM AEST
Astronomical Twilight 4:19 AM AEST 7:21 PM AEST
Moon 4:12 AM AEST (10/14) 4:49 PM AEST (10/14)
Length of Visible Light 13h 16m
Length of Day
12h 31m
Waning Crescent, 3% of the Moon is Illuminated
Oct 14
Waning Crescent
Oct 15
New
Oct 22
First Quarter
Oct 30
Full
Nov 7
Last Quarter

Hourly Weather History & Observations

Time (AEST) Temp. Dew Point Humidity Pressure Visibility Wind Dir Wind Speed Gust Speed Precip Events Conditions
12:00 AM 69 °F 42 °F 26% 30.13 in - SE 15.0 mph - -  
12:00 AM 69.8 °F 41.0 °F 35% 30.12 in - SE 15.0 mph - N/A   Unknown
12:30 AM 69.8 °F 33.8 °F 27% 30.12 in - SE 15.0 mph - N/A   Unknown
1:00 AM 68.0 °F 48.2 °F 49% 30.09 in - SE 15.0 mph - N/A   Unknown
1:30 AM 68.0 °F 42.8 °F 40% 30.09 in - SE 15.0 mph - N/A   Unknown
2:00 AM 68.0 °F 41.0 °F 37% 30.09 in - SE 13.8 mph - N/A   Unknown
2:30 AM 68.0 °F 32.0 °F 26% 30.09 in - SE 13.8 mph - N/A   Unknown
3:00 AM 68.0 °F 50.0 °F 52% 30.09 in - SE 15.0 mph - N/A   Unknown
4:00 AM 68.0 °F 48.2 °F 49% 30.09 in - SE 15.0 mph - N/A   Unknown
5:00 AM 68.0 °F 46.4 °F 46% 30.09 in - SE 16.1 mph - N/A   Unknown
5:30 AM 68.0 °F 46.4 °F 46% 30.12 in - SE 15.0 mph - N/A   Unknown
6:30 AM 69.8 °F 46.4 °F 43% 30.12 in - SE 16.1 mph - N/A   Unknown
7:00 AM 71.6 °F 44.6 °F 38% 30.15 in - SE 17.3 mph - N/A   Unknown
7:30 AM 71.6 °F 44.6 °F 38% 30.15 in - SSE 18.4 mph - N/A   Unknown
8:00 AM 73.4 °F 42.8 °F 33% 30.15 in - SE 18.4 mph - N/A   Unknown
8:30 AM 71.6 °F 44.6 °F 38% 30.18 in - SSE 18.4 mph - N/A   Unknown
9:00 AM 73 °F 47 °F 28% 30.18 in - SSE 18.4 mph - -  
9:00 AM 73.4 °F 46.4 °F 38% 30.18 in - SSE 18.4 mph - N/A   Unknown
9:30 AM 73.4 °F 42.8 °F 33% 30.18 in - SSE 18.4 mph - N/A   Unknown
10:30 AM 75.2 °F 46.4 °F 36% 30.15 in - SSE 18.4 mph - N/A   Unknown
11:00 AM 77.0 °F 44.6 °F 32% 30.15 in - SE 18.4 mph - N/A   Unknown
11:30 AM 77.0 °F 39.2 °F 26% 30.15 in - SE 19.6 mph - N/A   Unknown
12:00 PM 77 °F 38 °F 15% 30.14 in - SE 20.7 mph - -  
12:30 PM 77.0 °F 42.8 °F 29% 30.12 in - SE 21.9 mph - N/A   Unknown
1:00 PM 75.2 °F 46.4 °F 36% 30.12 in - SE 20.7 mph - N/A   Unknown
1:30 PM 77.0 °F 42.8 °F 29% 30.09 in - ESE 23.0 mph - N/A   Unknown
2:00 PM 75.2 °F 39.2 °F 27% 30.09 in - ESE 23.0 mph - N/A   Unknown
2:30 PM 75.2 °F 42.8 °F 31% 30.09 in - ESE 23.0 mph - N/A   Unknown
3:00 PM 75.2 °F 42.8 °F 31% 30.06 in - ESE 24.2 mph - N/A   Unknown
3:30 PM 73.4 °F 42.8 °F 33% 30.06 in - ESE 25.3 mph - N/A   Unknown
4:00 PM 73.4 °F 42.8 °F 33% 30.06 in - ESE 25.3 mph - N/A   Unknown
4:30 PM 73.4 °F 39.2 °F 29% 30.06 in - ESE 24.2 mph - N/A   Unknown
5:00 PM 73.4 °F 41.0 °F 31% 30.09 in - ESE 24.2 mph - N/A   Unknown
5:30 PM 71.6 °F 41.0 °F 33% 30.09 in - ESE 24.2 mph - N/A   Unknown
6:00 PM 72 °F 38 °F 19% 30.10 in - ESE 25.3 mph - -  
6:00 PM 73.4 °F 39.2 °F 29% 30.09 in - ESE 25.3 mph - N/A   Unknown
6:30 PM 71.6 °F 41.0 °F 33% 30.09 in - East 26.5 mph - N/A   Unknown
7:00 PM 73.4 °F 44.6 °F 36% 30.12 in - East 25.3 mph - N/A   Unknown
7:30 PM 73.4 °F 50.0 °F 44% 30.12 in - ESE 24.2 mph - N/A   Unknown
8:00 PM 73.4 °F 51.8 °F 47% 30.15 in - ESE 23.0 mph - N/A   Unknown
8:30 PM 71.6 °F 51.8 °F 50% 30.15 in - ESE 23.0 mph - N/A   Unknown
9:00 PM 72 °F 52 °F 39% 30.16 in - East 23.0 mph - -  
9:00 PM 71.6 °F 51.8 °F 50% 30.15 in - East 23.0 mph - N/A   Unknown
9:30 PM 71.6 °F 51.8 °F 50% 30.15 in - ESE 23.0 mph - N/A   Unknown
10:00 PM 71.6 °F 51.8 °F 50% 30.15 in - East 20.7 mph - N/A   Unknown
10:30 PM 71.6 °F 46.4 °F 41% 30.15 in - ESE 20.7 mph - N/A   Unknown
11:00 PM 71.6 °F 48.2 °F 43% 30.15 in - ESE 19.6 mph - N/A   Unknown
11:30 PM 71.6 °F 46.4 °F 41% 30.15 in - ESE 18.4 mph - N/A   Unknown